Mojave, CA

6:59 AM PDT on April 23, 2018 (GMT -0700)
Mojave

Weather History for KMHV - November, 2013

Change the Weather History Date:

Saturday, November 9, 2013

  Actual Average Record
Temperature  
Mean Temperature 56 °F -  
Max Temperature 71 °F 67 °F 80 °F (2014)
Min Temperature 41 °F 40 °F 30 °F (2011)
Degree Days  
Heating Degree Days 9    
Growing Degree Days 6 (Base 50)    
Moisture  
Dew Point 10 °F    
Average Humidity 17    
Maximum Humidity 21    
Minimum Humidity 11    
Precipitation  
Precipitation 0.00 in - - ()
Sea Level Pressure  
Sea Level Pressure 30.09 in    
Wind  
Wind Speed 5 mph (NNW)    
Max Wind Speed 8 mph    
Max Gust Speed -    
Visibility 10 miles    
Events      
Averages and records for this station are not official NWS values.
T = Trace of Precipitation, MM = Missing Value Source: NWS Daily Summary

Daily Weather History Graph

Daily Weather History Graph

Search for Another Location

Airport or City:

Astronomy

Nov. 09, 2013 Rise Set
Actual Time 6:21 AM PST 4:50 PM PST
Civil Twilight 5:55 AM PST 5:17 PM PST
Nautical Twilight 5:24 AM PST 5:47 PM PST
Astronomical Twilight 4:54 AM PST 6:17 PM PST
Moon 12:04 PM PST (11/9) 11:22 PM PST (11/9)
Length of Visible Light 11h 22m
Length of Day
10h 29m
Waxing Crescent, 45% of the Moon is Illuminated
Nov 9
Waxing Crescent
Nov 9
First Quarter
Nov 17
Full
Nov 25
Last Quarter
Dec 2
New

Hourly Weather History & Observations

Time (PST) Temp. Windchill Dew Point Humidity Pressure Visibility Wind Dir Wind Speed Gust Speed Precip Events Conditions
12:15 AM 48.2 °F - 6.8 °F 19% 30.03 in 10.0 mi NW 5.8 mph - N/A   Clear
12:35 AM 46.4 °F 45.2 °F 5.0 °F 18% 30.04 in 10.0 mi WNW 3.5 mph - N/A   Clear
12:55 AM 46.4 °F 44.3 °F 5.0 °F 18% 30.03 in 10.0 mi NW 4.6 mph - N/A   Clear
1:15 AM 46.4 °F 44.3 °F 3.2 °F 17% 30.03 in 10.0 mi WNW 4.6 mph - N/A   Clear
1:35 AM 46.4 °F 44.3 °F 3.2 °F 17% 30.03 in 10.0 mi NW 4.6 mph - N/A   Clear
1:55 AM 46.4 °F 45.2 °F 3.2 °F 17% 30.03 in 10.0 mi NW 3.5 mph - N/A   Clear
2:15 AM 46.4 °F 45.2 °F 1.4 °F 16% 30.04 in 10.0 mi NW 3.5 mph - N/A   Clear
2:35 AM 46.4 °F 45.2 °F 5.0 °F 18% 30.04 in 10.0 mi North 3.5 mph - N/A   Clear
2:55 AM 44.6 °F 43.1 °F 5.0 °F 20% 30.04 in 10.0 mi NNE 3.5 mph - N/A   Clear
3:15 AM 44.6 °F 40.7 °F 5.0 °F 20% 30.04 in 10.0 mi North 6.9 mph - N/A   Clear
3:35 AM 46.4 °F 42.9 °F 5.0 °F 18% 30.04 in 10.0 mi NNW 6.9 mph - N/A   Clear
3:55 AM 44.6 °F 40.7 °F 5.0 °F 20% 30.04 in 10.0 mi North 6.9 mph - N/A   Clear
4:15 AM 41.0 °F 38.0 °F 3.2 °F 21% 30.05 in 10.0 mi NNW 4.6 mph - N/A   Clear
4:35 AM 42.8 °F 39.3 °F 3.2 °F 19% 30.05 in 10.0 mi NNW 5.8 mph - N/A   Clear
4:55 AM 42.8 °F 38.6 °F 3.2 °F 19% 30.06 in 10.0 mi NNW 6.9 mph - N/A   Clear
5:15 AM 44.6 °F 40.2 °F 1.4 °F 17% 30.06 in 10.0 mi North 8.1 mph - N/A   Clear
5:35 AM 46.4 °F 42.9 °F 5.0 °F 18% 30.06 in 10.0 mi North 6.9 mph - N/A   Clear
5:55 AM 44.6 °F 41.4 °F 6.8 °F 21% 30.07 in 10.0 mi North 5.8 mph - N/A   Clear
6:15 AM 46.4 °F 42.9 °F 6.8 °F 20% 30.07 in 10.0 mi NNW 6.9 mph - N/A   Clear
6:35 AM 46.4 °F 44.3 °F 3.2 °F 17% 30.08 in 10.0 mi North 4.6 mph - N/A   Clear
6:55 AM 48.2 °F - 5.0 °F 17% 30.09 in 10.0 mi NW 3.5 mph - N/A   Clear
7:15 AM 50.0 °F - 5.0 °F 16% 30.09 in 10.0 mi Calm Calm - N/A   Clear
7:35 AM 50.0 °F - 6.8 °F 17% 30.10 in 10.0 mi Calm Calm - N/A   Clear
7:55 AM 53.6 °F - 10.4 °F 18% 30.11 in 10.0 mi Calm Calm - N/A   Clear
8:15 AM 53.6 °F - 14.0 °F 21% 30.11 in 10.0 mi Calm Calm - N/A   Clear
8:35 AM 57.2 °F - 17.6 °F 21% 30.12 in 10.0 mi Calm Calm - N/A   Clear
8:55 AM 59.0 °F - 17.6 °F 20% 30.12 in 10.0 mi NNE 4.6 mph - N/A   Clear
9:15 AM 59.0 °F - 17.6 °F 20% 30.12 in 10.0 mi NE 5.8 mph - N/A   Clear
9:35 AM 60.8 °F - 17.6 °F 19% 30.13 in 10.0 mi NE 6.9 mph - N/A   Clear
9:55 AM 62.6 °F - 17.6 °F 18% 30.13 in 10.0 mi NE 5.8 mph - N/A   Clear
10:15 AM 62.6 °F - 17.6 °F 18% 30.13 in 10.0 mi NE 6.9 mph - N/A   Clear
10:35 AM 64.4 °F - 17.6 °F 16% 30.13 in 10.0 mi NE 6.9 mph - N/A   Clear
10:55 AM 64.4 °F - 17.6 °F 16% 30.13 in 10.0 mi ENE 8.1 mph - N/A   Clear
11:15 AM 64.4 °F - 17.6 °F 16% 30.12 in 10.0 mi NNE 5.8 mph - N/A   Clear
11:35 AM 66.2 °F - 17.6 °F 15% 30.11 in 10.0 mi NE 8.1 mph - N/A   Clear
11:55 AM 66.2 °F - 15.8 °F 14% 30.10 in 10.0 mi ENE 6.9 mph - N/A   Clear
12:15 PM 68.0 °F - 17.6 °F 15% 30.10 in 10.0 mi ENE 5.8 mph - N/A   Clear
12:35 PM 68.0 °F - 15.8 °F 13% 30.09 in 10.0 mi East 4.6 mph - N/A   Clear
12:55 PM 68.0 °F - 15.8 °F 13% 30.08 in 10.0 mi East 4.6 mph - N/A   Clear
1:15 PM 68.0 °F - 14.0 °F 12% 30.07 in 10.0 mi Calm Calm - N/A   Clear
1:35 PM 69.8 °F - 14.0 °F 12% 30.07 in 10.0 mi East 3.5 mph - N/A   Clear
1:55 PM 69.8 °F - 14.0 °F 12% 30.07 in 10.0 mi East 3.5 mph - N/A   Clear
2:15 PM 69.8 °F - 14.0 °F 12% 30.07 in 10.0 mi Calm Calm - N/A   Clear
2:35 PM 69.8 °F - 14.0 °F 12% 30.07 in 10.0 mi Calm Calm - N/A   Clear
2:55 PM 71.6 °F - 14.0 °F 11% 30.07 in 10.0 mi Calm Calm - N/A   Clear
3:15 PM 71.6 °F - 14.0 °F 11% 30.07 in 10.0 mi Calm Calm - N/A   Clear
3:35 PM 71.6 °F - 14.0 °F 11% 30.06 in 10.0 mi Calm Calm - N/A   Clear
3:55 PM 69.8 °F - 14.0 °F 12% 30.06 in 10.0 mi Calm Calm - N/A   Clear
4:15 PM 69.8 °F - 14.0 °F 12% 30.06 in 10.0 mi Calm Calm - N/A   Clear
4:35 PM 69.8 °F - 14.0 °F 12% 30.06 in 10.0 mi Calm Calm - N/A   Clear
4:55 PM 68.0 °F - 14.0 °F 12% 30.06 in 10.0 mi Calm Calm - N/A   Clear
5:15 PM 66.2 °F - 12.2 °F 12% 30.07 in 10.0 mi Calm Calm - N/A   Clear
5:35 PM 59.0 °F - 10.4 °F 15% 30.08 in 10.0 mi Calm Calm - N/A   Clear
5:55 PM 57.2 °F - 10.4 °F 16% 30.08 in 10.0 mi NW 4.6 mph - N/A   Clear
6:15 PM 55.4 °F - 10.4 °F 17% 30.09 in 10.0 mi NW 5.8 mph - N/A   Clear
6:35 PM 55.4 °F - 10.4 °F 17% 30.10 in 10.0 mi NW 5.8 mph - N/A   Clear
6:55 PM 55.4 °F - 10.4 °F 17% 30.10 in 10.0 mi NW 5.8 mph - N/A   Clear
7:15 PM 53.6 °F - 10.4 °F 18% 30.10 in 10.0 mi WNW 5.8 mph - N/A   Clear
7:35 PM 51.8 °F - 10.4 °F 19% 30.10 in 10.0 mi NW 6.9 mph - N/A   Clear
7:55 PM 53.6 °F - 10.4 °F 18% 30.11 in 10.0 mi NW 6.9 mph - N/A   Clear
8:15 PM 51.8 °F - 10.4 °F 19% 30.11 in 10.0 mi NW 8.1 mph - N/A   Clear
8:35 PM 53.6 °F - 10.4 °F 18% 30.11 in 10.0 mi NW 6.9 mph - N/A   Clear
8:55 PM 51.8 °F - 10.4 °F 19% 30.12 in 10.0 mi NW 8.1 mph - N/A   Clear
9:15 PM 51.8 °F - 10.4 °F 19% 30.13 in 10.0 mi NW 8.1 mph - N/A   Clear
9:35 PM 50.0 °F - 10.4 °F 20% 30.13 in 10.0 mi NW 6.9 mph - N/A   Clear
9:55 PM 50.0 °F - 10.4 °F 20% 30.13 in 10.0 mi NNW 8.1 mph - N/A   Clear
10:15 PM 50.0 °F - 10.4 °F 20% 30.13 in 10.0 mi Calm Calm - N/A   Clear
10:35 PM 53.6 °F - 10.4 °F 18% 30.13 in 10.0 mi NNW 5.8 mph - N/A   Clear
10:55 PM 53.6 °F - 10.4 °F 18% 30.13 in 10.0 mi NNW 6.9 mph - N/A   Clear
11:15 PM 50.0 °F - 10.4 °F 20% 30.13 in 10.0 mi NNW 8.1 mph - N/A   Clear
11:35 PM 50.0 °F - 10.4 °F 20% 30.13 in 10.0 mi NNW 8.1 mph - N/A   Clear
11:55 PM 50.0 °F - 10.4 °F 20% 30.13 in 10.0 mi NW 8.1 mph - N/A   Clear